Location: Baix
(44.7118°N, 4.7648°E)
Time: 19:24:40
(UTC+00:00)

Cosmos 1092 Rocket - Pass Details

Date: 07 August 2020
Orbit: 953 x 996 km, 82.9° (Epoch: 24 September)

Event Time Altitude Azimuth Distance (km) Brightness Sun altitude
Rises 00:38:02 0° 354° (N) 3,695 8.1 -27.8°
Reaches altitude 10° 00:40:37 10° 357° (N) 2,737 7.2 -27.7°
Maximum altitude 00:46:51 66° 79° (E) 1,058 4.2 -27.4°
Enters shadow 00:48:06 53° 131° (SE) 1,172 4.2 -27.4°
